Weather History for Rensselaer, IN

Change the Weather History Date:

Sunday, December 30, 2012

  Actual Average (KVPZ) Record (KVPZ)
Temperature  
Mean Temperature 23 °F 25 °F  
Max Temperature 32 °F 32 °F 56 °F (2002)
Min Temperature 14 °F 18 °F -1 °F (1998)
Degree Days  
Heating Degree Days 42 40  
Month to date heating degree days 1103  
Since 1 July heating degree days 2361  
Cooling Degree Days 0 0  
Month to date cooling degree days 0  
Year to date cooling degree days 713  
Moisture  
Dew Point 23 °F    
Average Humidity 85    
Maximum Humidity 93    
Minimum Humidity 80    
Precipitation  
Precipitation 0.00 in 0.08 in 0.25 in (2011)
Month to date precipitation 2.11  
Year to date precipitation 37.44  
Sea Level Pressure  
Sea Level Pressure 30.28 in    
Wind  
Wind Speed 11 mph (SSW)    
Max Wind Speed 16 mph    
Max Gust Speed 21 mph    
Visibility 9 miles    
Events      
T = Trace of Precipitation, MM = Missing Value Source: NWS Daily Summary

Daily Weather History Graph

Daily Weather History Graph

Search for Another Location

Airport:

Trip Planner

Search our weather history database for the weather conditions in past years. The results will help you decide how hot, cold, wet, or windy it might be!

Date:

Astronomy

Dec. 30, 2012 Rise Set
Actual Time 7:13 AM CST 4:29 PM CST
Civil Twilight 6:42 AM CST 5:00 PM CST
Nautical Twilight 6:07 AM CST 5:35 PM CST
Astronomical Twilight 5:34 AM CST 6:08 PM CST
Moon 7:01 PM CST (12/30) 8:20 AM CST (12/30)
Length of Visible Light 10h 18m
Length of Day
9h 16m
Waning Gibbous, 95% of the Moon is Illuminated
Dec 30
Waning Gibbous
Jan 4
Last Quarter
Jan 11
New
Jan 18
First Quarter
Jan 26
Full

Hourly Weather History & Observations

Time (CST) Temp. Windchill Dew Point Humidity Pressure Visibility Wind Dir Wind Speed Gust Speed Precip Events Conditions
12:15 AM 21.2 °F 9.5 °F 19.4 °F 93% 30.24 in 10.0 mi WSW 11.5 mph - N/A   Overcast
12:35 AM 21.2 °F 9.5 °F 19.4 °F 93% 30.24 in 10.0 mi West 11.5 mph 19.6 mph N/A   Overcast
12:55 AM 21.2 °F 7.8 °F 19.4 °F 93% 30.24 in 10.0 mi West 15.0 mph 20.7 mph N/A   Overcast
1:15 AM 21.2 °F 8.9 °F 19.4 °F 93% 30.26 in 10.0 mi WSW 12.7 mph - N/A   Overcast
1:35 AM 21.2 °F 9.5 °F 19.4 °F 93% 30.26 in 10.0 mi West 11.5 mph 17.3 mph N/A   Overcast
1:55 AM 21.2 °F 9.5 °F 19.4 °F 93% 30.27 in 10.0 mi West 11.5 mph 16.1 mph N/A   Overcast
2:15 AM 21.2 °F 9.5 °F 17.6 °F 86% 30.27 in 10.0 mi West 11.5 mph - N/A   Overcast
2:35 AM 19.4 °F 9.5 °F 17.6 °F 93% 30.28 in 10.0 mi WSW 8.1 mph - N/A   Mostly Cloudy
2:55 AM 19.4 °F 8.6 °F 17.6 °F 93% 30.28 in 10.0 mi WSW 9.2 mph - N/A   Scattered Clouds
7:35 AM 14.0 °F 6.5 °F 12.2 °F 93% 30.34 in 5.0 mi WSW 4.6 mph - N/A   Clear
7:55 AM 15.8 °F 7.2 °F 14.0 °F 93% 30.35 in 5.0 mi SSW 5.8 mph - N/A   Clear
8:15 AM 17.6 °F 6.4 °F 15.8 °F 93% 30.36 in 5.0 mi SSW 9.2 mph - N/A   Clear
8:35 AM 19.4 °F 8.6 °F 17.6 °F 93% 30.36 in 7.0 mi SSW 9.2 mph - N/A   Clear
8:55 AM 21.2 °F 10.9 °F 17.6 °F 86% 30.37 in 7.0 mi SW 9.2 mph - N/A   Clear
9:15 AM 21.2 °F 11.7 °F 19.4 °F 93% 30.37 in 7.0 mi SW 8.1 mph - N/A   Clear
9:35 AM 23.0 °F 13.9 °F 19.4 °F 86% 30.37 in 7.0 mi SSW 8.1 mph - N/A   Clear
9:55 AM 23.0 °F 13.9 °F 19.4 °F 86% 30.37 in 7.0 mi SSW 8.1 mph - N/A   Clear
10:15 AM 26.6 °F 16.8 °F 21.2 °F 80% 30.37 in 7.0 mi SSW 10.4 mph - N/A   Clear
10:35 AM 26.6 °F 16.8 °F 21.2 °F 80% 30.37 in 10.0 mi SSW 10.4 mph - N/A   Clear
10:55 AM 26.6 °F 18.2 °F 21.2 °F 80% 30.36 in 7.0 mi SW 8.1 mph - N/A   Clear
11:15 AM 28.4 °F 20.4 °F 23.0 °F 80% 30.35 in 10.0 mi SSW 8.1 mph - N/A   Clear
11:35 AM 28.4 °F 19.1 °F 23.0 °F 80% 30.34 in 10.0 mi South 10.4 mph - N/A   Clear
11:55 AM 30.2 °F 21.9 °F 24.8 °F 80% 30.33 in 7.0 mi South 9.2 mph - N/A   Clear
12:15 PM 30.2 °F 20.8 °F 26.6 °F 86% 30.32 in 10.0 mi South 11.5 mph 16.1 mph N/A   Clear
12:35 PM 30.2 °F 21.3 °F 26.6 °F 86% 30.31 in 7.0 mi South 10.4 mph - N/A   Clear
12:55 PM 32.0 °F 22.1 °F 26.6 °F 80% 30.31 in 7.0 mi South 13.8 mph - N/A   Clear
1:15 PM 30.2 °F 20.8 °F 26.6 °F 86% 30.31 in 7.0 mi South 11.5 mph - N/A   Clear
1:35 PM 32.0 °F 23.0 °F 26.6 °F 80% 30.30 in 7.0 mi South 11.5 mph - N/A   Clear
1:55 PM 32.0 °F 23.6 °F 26.6 °F 80% 30.30 in 7.0 mi South 10.4 mph - N/A   Clear
2:15 PM 32.0 °F 23.0 °F 26.6 °F 80% 30.30 in 7.0 mi SSW 11.5 mph - N/A   Clear
2:35 PM 32.0 °F 24.2 °F 26.6 °F 80% 30.28 in 10.0 mi South 9.2 mph - N/A   Clear
2:55 PM 32.0 °F 23.6 °F 26.6 °F 80% 30.28 in 10.0 mi South 10.4 mph - N/A   Clear
3:15 PM 32.0 °F 22.1 °F 26.6 °F 80% 30.27 in 7.0 mi South 13.8 mph - N/A   Clear
3:35 PM 32.0 °F 23.0 °F 26.6 °F 80% 30.27 in 10.0 mi South 11.5 mph - N/A   Clear
3:55 PM 30.2 °F 20.8 °F 26.6 °F 86% 30.27 in 10.0 mi South 11.5 mph - N/A   Clear
4:15 PM 30.2 °F 20.8 °F 26.6 °F 86% 30.28 in 10.0 mi South 11.5 mph - N/A   Clear
4:35 PM 30.2 °F 19.8 °F 26.6 °F 86% 30.28 in 10.0 mi South 13.8 mph 18.4 mph N/A   Clear
4:55 PM 30.2 °F 20.2 °F 26.6 °F 86% 30.29 in 10.0 mi SSW 12.7 mph 18.4 mph N/A   Clear
5:15 PM 30.2 °F 20.2 °F 26.6 °F 86% 30.29 in 10.0 mi South 12.7 mph 17.3 mph N/A   Clear
5:35 PM 30.2 °F 20.8 °F 26.6 °F 86% 30.29 in 10.0 mi South 11.5 mph - N/A   Clear
5:55 PM 30.2 °F 20.8 °F 24.8 °F 80% 30.28 in 10.0 mi South 11.5 mph - N/A   Clear
6:15 PM 28.4 °F 17.5 °F 24.8 °F 86% 30.28 in 10.0 mi South 13.8 mph 17.3 mph N/A   Clear
6:35 PM 28.4 °F 18.0 °F 24.8 °F 86% 30.28 in 10.0 mi SSW 12.7 mph - N/A   Clear
6:55 PM 28.4 °F 18.0 °F 24.8 °F 86% 30.28 in 10.0 mi South 12.7 mph - N/A   Clear
7:15 PM 28.4 °F 18.5 °F 24.8 °F 86% 30.28 in 10.0 mi SSW 11.5 mph - N/A   Clear
7:35 PM 28.4 °F 18.0 °F 23.0 °F 80% 30.24 in 10.0 mi South 12.7 mph - N/A   Clear
7:55 PM 28.4 °F 18.0 °F 23.0 °F 80% 30.23 in 10.0 mi South 12.7 mph - N/A   Clear
8:15 PM 28.4 °F 17.5 °F 23.0 °F 80% 30.23 in 10.0 mi South 13.8 mph - N/A   Clear
8:35 PM 26.6 °F 15.7 °F 23.0 °F 86% 30.23 in 10.0 mi South 12.7 mph - N/A   Clear
8:55 PM 26.6 °F 14.7 °F 23.0 °F 86% 30.23 in 10.0 mi South 15.0 mph 19.6 mph N/A   Clear
9:15 PM 28.4 °F 18.5 °F 23.0 °F 80% 30.21 in 10.0 mi South 11.5 mph - N/A   Clear
9:35 PM 28.4 °F 17.5 °F 23.0 °F 80% 30.22 in 10.0 mi South 13.8 mph - N/A   Clear
9:55 PM 28.4 °F 17.0 °F 23.0 °F 80% 30.21 in 10.0 mi South 15.0 mph 20.7 mph N/A   Clear
10:15 PM 28.4 °F 17.5 °F 23.0 °F 80% 30.21 in 10.0 mi South 13.8 mph - N/A   Clear
10:35 PM 28.4 °F 17.0 °F 23.0 °F 80% 30.19 in 10.0 mi South 15.0 mph 19.6 mph N/A   Clear
10:55 PM 28.4 °F 17.0 °F 23.0 °F 80% 30.19 in 10.0 mi South 15.0 mph - N/A   Clear
11:15 PM 28.4 °F 17.5 °F 23.0 °F 80% 30.19 in 10.0 mi SSW 13.8 mph 18.4 mph N/A   Clear
11:35 PM 28.4 °F 18.0 °F 23.0 °F 80% 30.17 in 10.0 mi South 12.7 mph - N/A   Clear
11:55 PM 28.4 °F 16.6 °F 23.0 °F 80% 30.16 in 10.0 mi SSW 16.1 mph 20.7 mph N/A   Clear